Regional Weather Roundup
Issued by NWS Charleston, SC

Current Version | Previous Version | Graphics & Text | Print | Product List | Glossary On
Versions: 1 2 3 4 5 6 7 8 9 10 11 12 13 14 15 16 17 18 19 20 21 22 23 24 25 26 27 28 29 30 31 32 33 34 35 36 37 38 39 40 41 42 43 44 45 46 47 48 49 50
000
ASUS42 KCHS 300813
RWRCHS

REGIONAL WEATHER ROUNDUP
NATIONAL WEATHER SERVICE CHARLESTON SC
400 AM EDT SAT APR 30 2016

NOTE: "FAIR" INDICATES FEW OR NO CLOUDS BELOW 12,000 FEET WITH NO
SIGNIFICANT WEATHER AND/OR OBSTRUCTIONS TO VISIBILITY.

NOT ALL STATIONS ARE QUALITY CONTROLLED. USE DATA WITH CAUTION...
ESPECIALLY DEWPOINT OBSERVATIONS.

SCZ027-030-031-034>040-042>050-300900-
...SOUTHEAST SOUTH CAROLINA...

CITY           SKY/WX    TMP DP  RH WIND       PRES   REMARKS
N CHARLESTON   CLEAR     69  66  90 CALM      29.97F
WATERFRONT PRK   N/A     71  70  96 VRB2      29.95F
MOUNT PLEASANT FAIR      64  64 100 CALM      29.98S FOG
JOHNS ISLAND   FAIR      68  68 100 CALM      29.97F FOG
PINOPOLIS        N/A     70  68  94 CALM      29.92R
MONCKS CORNER  LGT RAIN  64  63  94 CALM      29.98S VSB 1/4
SUMMERVILLE    FOG       68  68 100 CALM      29.99S VSB 1
BEAUFORT MCAS  PTCLDY    72  69  90 SE3       29.96F FOG
BEAUFORT ARPT    N/A     70  70 100 CALM      29.96S FOG
HILTON HEAD IS CLOUDY    72  72 100 CALM      29.97F FOG
WALTERBORO     FOG       70  70 100 E5        29.98S VSB 1/4
ALLENDALE      CLOUDY    70  68  94 SE5       29.96R FOG

...SOUTHERN MIDLANDS AND PEE DEE...

CITY           SKY/WX    TMP DP  RH WIND       PRES   REMARKS
GEORGETOWN     FAIR      63  61  94 CALM      30.00S
KINGSTREE      FOG       66  64  94 SE3       29.98F VSB 1/4
ORANGEBURG     CLOUDY    66  65  96 SE5       29.98S FOG
BARNWELL       FOG       70  70 100 CALM      29.97S VSB 1/2
AIKEN          FAIR      61  57  88 CALM      30.00S
MANNING        NOT AVBL
COLUMBIA       PTCLDY    67  61  81 E3        29.96F
SUMTER         CLOUDY    67  65  94 S6        29.96S
FLORENCE       CLOUDY    68  66  93 S5        29.99S
MYRTLE BEACH   CLEAR     68  61  77 S5        30.01S
N MYRTLE BEACH CLEAR     66  64  93 CALM      29.99S FOG

$$

GAZ063-065-086>088-099>101-113>116-118-119-134>141-150-300900-
...SOUTHEAST GEORGIA...

CITY           SKY/WX    TMP DP  RH WIND       PRES   REMARKS
SAVANNAH ARPT  MOCLDY    68  65  90 CALM      29.96S
HUNTER AAF     CLOUDY    69  69 100 S3        29.94S
FORT STEWART   FOG       67  65  96 CALM      29.94S VSB 1/4
STATESBORO     CLEAR     66  65  97 CALM      29.96R
SYLVANIA       SUNNY     67  67 100 CALM      29.97R FOG
CLAXTON        FAIR      62  62  99 CALM      29.96S

...CSRA...CENTRAL AND FAR SOUTHEAST GEORGIA...

CITY           SKY/WX    TMP DP  RH WIND       PRES   REMARKS
THOMSON        CLEAR     61  61  98 CALM      29.99S
AUGUSTA-BUSH   CLEAR     62  61  96 CALM      29.95S
AUGUSTA-DANIEL CLEAR     68  61  78 SE7       29.96F
SWAINSBORO     FAIR      68  63  83 SE3       29.96S
VIDALIA        CLEAR     66  63  88 CALM      29.95S
EASTMAN        FAIR     N/A N/A N/A CALM      29.95F
HAZLEHURST     FAIR      71  68  90 S5        29.93S
ALMA           CLEAR     66  65  96 CALM      29.94F FOG
WAYCROSS       CLEAR     67  67 100 CALM      29.94S
JESUP          FOG       68  66  94 CALM      29.95F VSB 1/4
BAXLEY         FAIR      66  66 100 CALM      29.94S
BRUNSWICK      FOG       72  70  94 CALM      29.96S VSB 1/4
SAINT SIMONS   PTCLDY    71  71 100 S5        29.96R

$$

SCZ027-028-034-036>038-045-046-048>050-GAZ119-141-300900-
...LAKE AND SUPPLEMENTAL COASTAL OBSERVATIONS...

STATION/POSITION TIME  TEMP    WIND        PRES    WAVE   SWELL
                       AIR SEA DIR/SP/G            HT/PER HT/PER/DIR
                 (UTC) (F)     (DEG/KT/KT) (MB)    (FT/S) (FT/S/D)
WINYAH BAY       NOT AVBL
LAKE MURRAY      0700   72     190/  8/ 12 1014.2F
ACE BASIN NERRS  NOT AVBL
FORT PULASKI     0700   71 72   CALM  /  1 1015.1F
SAPELO ISLAND    0700   72     190/  5     1014.0S

$$

ANZ835-935-AMZ111-154-330-350-352-354-370-450-454-472-300900-
...C-MAN AND BUOY OBSERVATIONS...

STATION/POSITION TIME  TEMP    WIND        PRES    WAVE   SWELL
                       AIR SEA DIR/SP/G            HT/PER HT/PER/DIR
                 (UTC) (F)     (DEG/KT/KT) (MB)    (FT/S) (FT/S/D)
BUOY 41004       0750   74 73  110/  6/  8 1014.7R   2/10   2/10
BUOY 41008       NOT AVBL
FOLLY BEACH CMAN 0700   71     100/  2/  2 1015.4F
CAPERS NEARSHORE 0708   70 70   50/  2/  4 1014.9F
FRIPP NEARSHORE  0708   72 71  170/  4/  6 1014.0F


STATION/POSITION TIME  TEMP    WIND        PRES    WAVE   SWELL
                       AIR SEA DIR/SP/G            HT/PER HT/PER/DIR
                 (UTC) (F)     (DEG/KT/KT) (MB)    (FT/S) (FT/S/D)
5E ST. MARYS GA  0721      72                N/A     1/10
FRYING PAN BUOY  0700   70 70  120/  4/  6 1015.0F
BUOY 41025       0750   59 74   20/ 17/ 23 1016.4S   4/10   3/ 50/10
CAPE LOOKOUT NC  0700   64      50/ 12/ 14 1016.2R
BUOY 41002       0750   71 71   50/ 12/ 14 1015.3R   3/10   2/ 70/10
BUOY 41010       0720   75 77  170/  6/  6 1014.3F
ST AUGUSTINE FL  0800   72 70  210/  2/  3 1014.9F


$$




USA.gov is the U.S. government's official web portal to all federal, state and local government web resources and services.